Parsons, KS

2:33 AM CDT on September 21, 2019 (GMT -0500)
Tri-City

Weather History for KPPF - July, 2019

Change the Weather History Date:

Wednesday, July 10, 2019

  Actual Average Record
Temperature  
Mean Temperature 80 °F -  
Max Temperature 89 °F 94 °F 107 °F (2011)
Min Temperature 71 °F 71 °F 56 °F (1961)
Cooling Degree Days 15    
Growing Degree Days 30 (Base 50)    
Moisture  
Dew Point 73 °F    
Average Humidity 83    
Maximum Humidity 100    
Minimum Humidity 57    
Precipitation  
Precipitation 0.04 in - - ()
Sea Level Pressure  
Sea Level Pressure 30.02 in    
Wind  
Wind Speed 3 mph (East)    
Max Wind Speed 20 mph    
Max Gust Speed 39 mph    
Visibility 10 miles    
Events Rain , Thunderstorm    
Averages and records for this station are not official NWS values.
T = Trace of Precipitation, MM = Missing Value Source: NWS Daily Summary

Daily Weather History Graph

Daily Weather History Graph

Search for Another Location

Airport or City:

Astronomy

Jul. 10, 2019 Rise Set
Actual Time 6:09 AM CDT 8:44 PM CDT
Civil Twilight 5:39 AM CDT 9:15 PM CDT
Nautical Twilight 5:01 AM CDT 9:52 PM CDT
Astronomical Twilight 4:19 AM CDT 10:35 PM CDT
Moon 2:56 PM CDT (7/10) 1:44 AM CDT (7/10)
Length of Visible Light 15h 35m
Length of Day
14h 34m
Waxing Gibbous, 64% of the Moon is Illuminated
Jul 10
Waxing Gibbous
Jul 16
Full
Jul 24
Last Quarter
Jul 31
New
Aug 7
First Quarter

Hourly Weather History & Observations

Time (CDT) Temp. Heat Index Dew Point Humidity Pressure Visibility Wind Dir Wind Speed Gust Speed Precip Events Conditions
12:52 AM 81.0 °F 87.9 °F 77.0 °F 88% 29.95 in 10.0 mi Calm Calm - N/A   Clear
1:52 AM 80.1 °F 85.8 °F 77.0 °F 90% 29.96 in 10.0 mi Calm Calm - N/A   Clear
2:52 AM 79.0 °F - 77.0 °F 94% 29.95 in 10.0 mi SSE 3.5 mph - N/A   Clear
3:52 AM 78.1 °F - 75.9 °F 93% 29.95 in 10.0 mi South 3.5 mph - N/A   Clear
4:52 AM 78.1 °F - 75.9 °F 93% 29.95 in 10.0 mi Calm Calm - N/A   Clear
5:52 AM 78.1 °F - 75.9 °F 93% 29.95 in 10.0 mi South 3.5 mph - N/A   Clear
6:52 AM 78.1 °F - 75.9 °F 93% 29.97 in 10.0 mi Calm Calm - N/A   Clear
7:52 AM 82.0 °F 90.2 °F 77.0 °F 85% 30.01 in 10.0 mi Calm Calm - N/A   Scattered Clouds
8:52 AM 82.9 °F 90.8 °F 75.9 °F 79% 30.04 in 10.0 mi Calm Calm - N/A   Mostly Cloudy
9:52 AM 86.0 °F 96.9 °F 77.0 °F 74% 30.05 in 10.0 mi Calm Calm - N/A   Partly Cloudy
10:44 AM 77.0 °F - 69.1 °F 76% 30.09 in 10.0 mi North 19.6 mph 39.1 mph N/A Thunderstorm Thunderstorm
10:52 AM 75.9 °F - 69.1 °F 79% 30.06 in 10.0 mi NNE 17.3 mph 29.9 mph N/A Thunderstorm Thunderstorm
11:50 AM 71.6 °F - 71.6 °F 100% 30.09 in 8.0 mi SSE 5.8 mph - 0.04 in Rain , Thunderstorm Light Rain
11:52 AM 72.0 °F - 70.0 °F 93% 30.06 in 10.0 mi South 5.8 mph - 0.04 in Rain , Thunderstorm Light Rain
12:20 PM 73.0 °F - 71.1 °F 93% 30.09 in 10.0 mi South 3.5 mph - 0.00 in   Partly Cloudy
12:52 PM 73.9 °F - 70.0 °F 87% 30.05 in 10.0 mi Variable 3.5 mph - 0.00 in   Clear
1:52 PM 78.1 °F - 70.0 °F 76% 30.03 in 10.0 mi Calm Calm - N/A   Clear
2:52 PM 81.0 °F 84.9 °F 71.1 °F 72% 30.02 in 10.0 mi Calm Calm - N/A   Clear
3:52 PM 82.0 °F 87.4 °F 73.0 °F 74% 30.01 in 10.0 mi Variable 4.6 mph - N/A   Clear
4:52 PM 86.0 °F 93.0 °F 73.0 °F 65% 30.02 in 10.0 mi NNW 5.8 mph - N/A   Clear
5:52 PM 89.1 °F 96.0 °F 72.0 °F 57% 30.01 in 10.0 mi NNE 3.5 mph - N/A   Clear
6:52 PM 87.1 °F 93.6 °F 72.0 °F 61% 30.02 in 10.0 mi Calm Calm - N/A   Clear
7:52 PM 84.9 °F 92.1 °F 73.9 °F 69% 30.03 in 10.0 mi Calm Calm - N/A   Clear
8:52 PM 77.0 °F - 73.9 °F 90% 30.03 in 10.0 mi Calm Calm - N/A   Clear
9:52 PM 75.0 °F - 73.0 °F 94% 30.05 in 10.0 mi North 3.5 mph - N/A   Clear
10:52 PM 75.0 °F - 73.0 °F 94% 30.07 in 10.0 mi Calm Calm - N/A   Clear
11:52 PM 75.9 °F - 70.0 °F 82% 30.06 in 10.0 mi NNE 4.6 mph - N/A   Partly Cloudy